Regional Weather Roundup
Issued by NWS Charleston, SC

Current Version | Previous Version | Text Only | Print | Product List | Glossary Off
Versions: 1 2 3 4 5 6 7 8 9 10 11 12 13 14 15 16 17 18 19 20 21 22 23 24 25 26 27 28 29 30 31 32 33 34 35 36 37 38 39 40 41 42 43 44 45 46 47 48 49 50

000
ASUS42 KCHS 260512
RWRCHS

REGIONAL WEATHER ROUNDUP
NATIONAL WEATHER SERVICE CHARLESTON SC
100 AM EDT MON JUN 26 2017

NOTE: "FAIR" INDICATES FEW OR NO CLOUDS BELOW 12,000 FEET WITH NO
SIGNIFICANT WEATHER AND/OR OBSTRUCTIONS TO VISIBILITY.

NOT ALL STATIONS ARE QUALITY CONTROLLED. USE DATA WITH CAUTION...
ESPECIALLY DEWPOINT OBSERVATIONS.

SCZ027-030-031-034>040-042>050-260600-
...SOUTHEAST SOUTH CAROLINA...

CITY           SKY/WX    TMP DP  RH WIND       PRES   REMARKS
N CHARLESTON   CLOUDY    75  73  93 CALM      30.07F
WATERFRONT PRK   N/A     78  76  94 VRB3      30.05F
JOHNS ISLAND   MOCLDY    77  75  94 NW5       30.07F
PINOPOLIS        N/A     75  73  94 CALM      30.01S
MONCKS CORNER  MOCLDY    72  72 100 CALM      30.08S
SUMMERVILLE    MOCLDY    72  72 100 N3        30.09S
BEAUFORT MCAS  CLOUDY    76  76 100 CALM      30.07F
BEAUFORT ARPT  NOT AVBL
HILTON HEAD IS CLOUDY    77  77 100 CALM      30.07F
WALTERBORO     FOG       72  72 100 CALM      30.09S VSB 3/4
ALLENDALE      CLOUDY    75  73  94 CALM      30.08R FOG

...SOUTHERN MIDLANDS AND PEE DEE...

CITY           SKY/WX    TMP DP  RH WIND       PRES   REMARKS
GEORGETOWN     FAIR      72  72 100 CALM      30.09S
KINGSTREE      FAIR      73  72  94 CALM      30.08F
ORANGEBURG     MOCLDY    74  72  93 NW3       30.09S
BARNWELL       MOCLDY    75  75 100 CALM      30.09S
AIKEN          FAIR      72  66  83 N6        30.14S
MANNING        FAIR      73  73 100 NE15G26   30.08F
COLUMBIA       CLOUDY    77  65  66 N6        30.09S
SUMTER         MOCLDY    75  70  85 N5        30.07S
FLORENCE       CLOUDY    77  69  76 N7        30.09S
MYRTLE BEACH   MOCLDY    75  74  96 NW3       30.09S
N MYRTLE BEACH CLOUDY    75  74  96 CALM      30.08R

$$

GAZ063-065-086>088-099>101-113>116-118-119-134>141-150-260600-
...SOUTHEAST GEORGIA...

CITY           SKY/WX    TMP DP  RH WIND       PRES   REMARKS
SAVANNAH ARPT  CLOUDY    76  74  93 W7        30.08F
HUNTER AAF     CLOUDY    76  75  98 CALM      30.05S
FORT STEWART   CLOUDY    75  73  94 CALM      30.06S
STATESBORO     CLOUDY    76  32  20 CALM      30.08S
SYLVANIA       CLOUDY    76  76 100 CALM      30.09F
CLAXTON        FAIR      73  73  99 CALM      30.08F FOG

...CSRA...CENTRAL AND FAR SOUTHEAST GEORGIA...

CITY           SKY/WX    TMP DP  RH WIND       PRES   REMARKS
THOMSON        CLOUDY    73  68  83 NE5       30.17R
AUGUSTA-BUSH   PTCLDY    78  70  76 N3        30.09R
AUGUSTA-DANIEL CLEAR     78  65  63 N6        30.11R
SWAINSBORO     FAIR      73  73 100 CALM      30.10S
VIDALIA        CLOUDY    75  73  94 CALM      30.09S
EASTMAN        FAIR      73  68  84 CALM      30.13S
HAZLEHURST     FOG       75  75 100 SW3       30.08F VSB 3/4
ALMA           CLOUDY    75  73  93 CALM      30.09S
WAYCROSS       CLOUDY    76  76 100 CALM      30.09F
JESUP          FAIR      73  72  94 CALM      30.08F
BAXLEY         FAIR      73  73 100 CALM      30.09S
BRUNSWICK      CLOUDY    77  75  94 W5        30.08S
SAINT SIMONS   CLOUDY    79  75  87 SW5       30.07S

$$

SCZ027-028-034-036>038-045-046-048>050-GAZ119-141-260600-
...LAKE AND SUPPLEMENTAL COASTAL OBSERVATIONS...

STATION/POSITION TIME  TEMP    WIND        PRES    WAVE   SWELL
                       AIR SEA DIR/SP/G            HT/PER HT/PER/DIR
                 (UTC) (F)     (DEG/KT/KT) (MB)    (FT/S) (FT/S/D)
WINYAH BAY       NOT AVBL
LAKE MURRAY      0420   75      CALM  /  4 1018.6
ACE BASIN NERRS  NOT AVBL
FORT PULASKI     0442   78 84  340/  4/  4 1018.3F
SAPELO ISLAND    0400   76     140/  2     1018.0

$$

ANZ835-935-AMZ111-154-330-350-352-354-370-450-454-472-260600-
...C-MAN AND BUOY OBSERVATIONS...

STATION/POSITION TIME  TEMP    WIND        PRES    WAVE   SWELL
                       AIR SEA DIR/SP/G            HT/PER HT/PER/DIR
                 (UTC) (F)     (DEG/KT/KT) (MB)    (FT/S) (FT/S/D)
BUOY 41004       0450   79 81  220/  8/ 12 1017.6F   3/ 8   2/110/ 8
BUOY 41008       0350   79 82  200/ 10/ 12 1018.0    2/ 9   2/120/ 9
FOLLY BEACH CMAN 0400   80     180/  6/  8 1019.0R
CAPERS NEARSHORE 0408   84 83  180/  8/ 14 1018.2R
FRIPP NEARSHORE  0408   79 84  220/  4/  8 1018.1R


STATION/POSITION TIME  TEMP    WIND        PRES    WAVE   SWELL
                       AIR SEA DIR/SP/G            HT/PER HT/PER/DIR
                 (UTC) (F)     (DEG/KT/KT) (MB)    (FT/S) (FT/S/D)
5E ST. MARYS GA  0430      80                N/A     2/ 9
FRYING PAN BUOY  0450   80 81  260/  6/  6 1018.0R   3/ 6   2/170/ 6
BUOY 41025       0450   78 80  240/ 14/ 16 1017.1S   3/ 8   2/170/ 8
CAPE LOOKOUT NC  0400   78     250/  8/ 10 1017.5R
BUOY 41002       0450   80 80  190/ 12/ 14 1019.4F   4/ 6   3/240/ 6
BUOY 41010       0450   83 84  160/ 12/ 14 1019.5F   3/ 8   2/120/ 8
ST AUGUSTINE FL  0500   75 77  190/  8/  8 1018.7F


$$




USA.gov is the U.S. government's official web portal to all federal, state and local government web resources and services.